Torna al catalogo

THOR ABLESTAR DEB

AttivoLEO
NORAD 404·DEBRIS·🇺🇸 United States

Lanciato Jun 29, 1961 da Cape Canaveral Space Force Station

Loading…

Prossimi Passaggi (prossime 24 ore)

TLE

AggiornatoSource: Space-Track

Epoca: Sep 14, 2026, 12:02 UTC

1 00404U 61015ED  26257.50156003  .00000150  00000-0  39316-3 0  9994
2 00404  66.4677 276.3327 0549201 124.2823 241.1470 12.92580580 54782

Traccia THOR ABLESTAR DEB in tempo reale con AllMySat

Download on the App Store